Location: Ariel
(45.9570°N, 122.5700°W)
Time: 07:22:34
(UTC-07:00)

Transit 4A - Pass Details

Date: 26 July 2019
Orbit: 863 x 981 km, 66.8° (Epoch: 22 August)

Event Time Altitude Azimuth Distance (km) Brightness Sun altitude
Rises 10:45:28 0° 323° (NW) 3,666 10.7 49.1°
Reaches altitude 10° 10:48:07 10° 319° (NW) 2,702 10.1 49.6°
Maximum altitude 10:54:11 52° 245° (WSW) 1,161 8.8 50.5°
Drops below altitude 10° 11:00:03 10° 171° (S) 2,610 10.8 51.3°
Sets 11:02:35 0° 166° (SSE) 3,530 11.3 51.7°
